This demonstration page uses our WeatherBlox Daily Observations layout. Learn more.

Left ArrowRight Arrow

Hourly Observations for February 18, 2015

Temp ( °F °C ) Dew Point ( °F °C ) Humidity (%) Winds ( mph kmh ) Pressure ( in mb ) Visibility ( mi km ) Precip ( " mm )
12:53 am 00:53 Clear 34 1.1 28 -2.2 79 79 SE 5 7 30.22 1023 10 16 0.00 0.00
1:53 am 01:53 Clear 32 0 27 -2.8 82 82 SE 7 11 30.19 1022 10 16 0.00 0.00
2:53 am 02:53 Clear 30 -1.1 26 -3.3 85 85 Calm 30.19 1022 10 16 0.00 0.00
3:53 am 03:53 Clear 30 -1.1 25 -3.9 82 82 NE 5 7 30.18 1022 10 16 0.00 0.00
4:53 am 04:53 Clear 30 -1.1 25 -3.9 82 82 E 5 7 30.16 1021 10 16 0.00 0.00
5:53 am 05:53 Clear 31 -0.6 26 -3.3 82 82 ESE 5 7 30.15 1021 10 16 0.00 0.00
6:53 am 06:53 Clear 31 -0.6 26 -3.3 82 82 SE 7 11 30.17 1022 10 16 0.00 0.00
7:53 am 07:53 Sunny 31 -0.6 26 -3.3 82 82 Calm 30.19 1022 10 16 0.00 0.00
8:53 am 08:53 Sunny 36 2.2 30 -1.1 79 79 Calm 30.19 1022 10 16 0.00 0.00
9:53 am 09:53 Sunny 41 5 32 0 70 70 SSE 5 7 30.18 1022 10 16 0.00 0.00
10:53 am 10:53 Sunny 47 8.3 34 1.1 61 61 VRB 3 6 30.18 1022 10 16 0.00 0.00
11:53 am 11:53 Sunny 53 11.7 33 0.6 47 47 VRB 3 6 30.16 1021 10 16 0.00 0.00
12:53 pm 12:53 Sunny 59 15 34 1.1 39 39 VRB 3 6 30.12 1020 10 16 0.00 0.00
1:53 pm 13:53 Sunny 63 17.2 32 0 31 31 undefined N/A 30.09 1019 10 16 0.00 0.00
2:53 pm 14:53 Sunny 67 19.4 29 -1.7 24 24 E 3 6 30.05 1018 10 16 0.00 0.00
3:53 pm 15:53 Sunny 68 20 24 -4.4 19 19 WSW 3 6 30.04 1017 10 16 0.00 0.00
4:53 pm 16:53 Sunny 70 21.1 20 -6.7 15 15 E 3 6 30.04 1017 10 16 0.00 0.00
5:53 pm 17:53 Sunny 69 20.6 20 -6.7 15 15 E 6 9 30.05 1018 10 16 0.00 0.00
6:53 pm 18:53 Clear 60 15.6 25 -3.9 26 26 SE 8 13 30.09 1019 10 16 0.00 0.00
7:53 pm 19:53 Clear 54 12.2 29 -1.7 38 38 SE 9 15 30.12 1020 10 16 0.00 0.00
8:53 pm 20:53 Clear 52 11.1 27 -2.8 38 38 ESE 9 15 30.14 1021 10 16 0.00 0.00
9:53 pm 21:53 Clear 51 10.6 28 -2.2 41 41 ESE 9 15 30.16 1021 10 16 0.00 0.00
10:53 pm 22:53 Clear 50 10 30 -1.1 46 46 E 9 15 30.17 1022 10 16 0.00 0.00
11:53 pm 23:53 Clear 49 9.4 31 -0.6 50 50 ENE 6 9 30.18 1022 10 16 0.00 0.00

Powered by AerisWeather